• In Uzbekistan
  • List of Countries
  • For 7 days
  • Water Temperature
  • Satellite Maps
  • Weather Map
  • Weather Widgets
  • user-avatar
    Login

    Hourly Weather Kecskemet

    Today, 24 September, Monday

    Time Temperature Precipitation Wind Pressure Humidity
    00:00 +19°C° 0 mm 5 mps 748 mmHg 58%
    01:00 +19°C° 0 mm 4 mps 746 mmHg 68%
    02:00 +19°C° 0.3 mm 6 mps 747 mmHg 68%
    03:00 +18°C° 0.3 mm 7 mps 747 mmHg 69%
    04:00 +18°C° 0.3 mm 9 mps 748 mmHg 69%
    05:00 +16°C° 0.2 mm 9 mps 749 mmHg 69%
    06:00 +15°C° 0.2 mm 9 mps 750 mmHg 69%
    07:00 +12°C° 0 mm 8 mps 752 mmHg 71%
    08:00 +12°C° 0.4 mm 8 mps 753 mmHg 68%
    09:00 +11°C° 0.4 mm 8 mps 754 mmHg 66%
    10:00 +11°C° 0.4 mm 8 mps 755 mmHg 63%
    11:00 +12°C° 0 mm 8 mps 756 mmHg 57%
    12:00 +13°C° 0 mm 8 mps 756 mmHg 51%
    13:00 +15°C° 0 mm 7 mps 757 mmHg 43%
    14:00 +16°C° 0 mm 8 mps 757 mmHg 40%
    15:00 +16°C° 0 mm 8 mps 757 mmHg 38%
    16:00 +16°C° 0 mm 9 mps 757 mmHg 35%
    17:00 +13°C° 0 mm 8 mps 757 mmHg 38%
    18:00 +12°C° 0 mm 7 mps 758 mmHg 41%
    19:00 +12°C° 0 mm 5 mps 758 mmHg 44%
    20:00 +12°C° 0 mm 5 mps 759 mmHg 45%
    21:00 +10°C° 0 mm 5 mps 759 mmHg 46%
    22:00 +10°C° 0 mm 5 mps 760 mmHg 47%
    23:00 +9°C° 0 mm 5 mps 760 mmHg 49%

    Tomorrow, 25 September, Tuesday

    Time Temperature Precipitation Wind Pressure Humidity
    00:00 +9°C° 0 mm 5 mps 760 mmHg 50%
    01:00 +9°C° 0 mm 5 mps 761 mmHg 52%
    02:00 +8°C° 0 mm 5 mps 761 mmHg 55%
    03:00 +8°C° 0 mm 5 mps 761 mmHg 57%
    04:00 +7°C° 0 mm 5 mps 761 mmHg 60%
    05:00 +8°C° 0 mm 6 mps 762 mmHg 59%
    06:00 +8°C° 0 mm 6 mps 762 mmHg 59%
    07:00 +8°C° 0 mm 6 mps 762 mmHg 59%
    08:00 +10°C° 0 mm 6 mps 763 mmHg 52%
    09:00 +11°C° 0 mm 6 mps 763 mmHg 44%
    10:00 +14°C° 0 mm 6 mps 764 mmHg 37%
    11:00 +14°C° 0 mm 6 mps 764 mmHg 34%
    12:00 +15°C° 0 mm 5 mps 764 mmHg 31%
    13:00 +16°C° 0 mm 5 mps 764 mmHg 28%
    14:00 +16°C° 0 mm 5 mps 764 mmHg 28%
    15:00 +16°C° 0 mm 5 mps 764 mmHg 28%
    16:00 +15°C° 0 mm 5 mps 763 mmHg 29%
    17:00 +14°C° 0 mm 4 mps 764 mmHg 33%
    18:00 +12°C° 0 mm 4 mps 764 mmHg 37%
    19:00 +11°C° 0 mm 3 mps 765 mmHg 42%
    20:00 +10°C° 0 mm 3 mps 765 mmHg 44%
    21:00 +9°C° 0 mm 3 mps 766 mmHg 47%
    22:00 +9°C° 0 mm 3 mps 766 mmHg 49%
    23:00 +8°C° 0 mm 3 mps 766 mmHg 51%

    Day after tomorrow, 26 September, Wednesday

    Time Temperature Precipitation Wind Pressure Humidity
    00:00 +8°C° 0 mm 2 mps 767 mmHg 53%
    01:00 +8°C° 0 mm 2 mps 767 mmHg 54%
    02:00 +7°C° 0 mm 2 mps 767 mmHg 56%
    03:00 +7°C° 0 mm 2 mps 767 mmHg 57%
    04:00 +7°C° 0 mm 2 mps 767 mmHg 58%
    05:00 +7°C° 0 mm 2 mps 767 mmHg 56%
    06:00 +8°C° 0 mm 2 mps 768 mmHg 55%
    07:00 +8°C° 0 mm 2 mps 768 mmHg 53%
    08:00 +10°C° 0 mm 2 mps 768 mmHg 46%
    09:00 +13°C° 0 mm 2 mps 768 mmHg 39%
    10:00 +15°C° 0 mm 2 mps 768 mmHg 33%
    11:00 +16°C° 0 mm 2 mps 768 mmHg 31%
    12:00 +16°C° 0 mm 2 mps 767 mmHg 29%
    13:00 +18°C° 0 mm 1 mps 767 mmHg 27%
    14:00 +18°C° 0 mm 1 mps 766 mmHg 26%
    15:00 +18°C° 0 mm 1 mps 766 mmHg 26%
    16:00 +18°C° 0 mm 1 mps 766 mmHg 26%
    17:00 +15°C° 0 mm 1 mps 765 mmHg 29%
    18:00 +14°C° 0 mm 1 mps 765 mmHg 33%
    19:00 +12°C° 0 mm 1 mps 765 mmHg 36%
    20:00 +12°C° 0 mm 1 mps 765 mmHg 37%
    21:00 +11°C° 0 mm 1 mps 765 mmHg 38%
    22:00 +11°C° 0 mm 1 mps 766 mmHg 38%
    23:00 +11°C° 0 mm 1 mps 765 mmHg 39%

    27 September, Thursday

    Time Temperature Precipitation Wind Pressure Humidity
    00:00 +9°C° 0 mm 2 mps 765 mmHg 40%
    01:00 +9°C° 0 mm 2 mps 765 mmHg 40%
    02:00 +9°C° 0 mm 2 mps 765 mmHg 41%
    03:00 +8°C° 0 mm 2 mps 764 mmHg 42%
    04:00 +8°C° 0 mm 2 mps 764 mmHg 42%
    05:00 +9°C° 0 mm 2 mps 764 mmHg 41%
    06:00 +9°C° 0 mm 2 mps 764 mmHg 41%
    07:00 +10°C° 0 mm 2 mps 764 mmHg 40%
    08:00 +13°C° 0 mm 2 mps 764 mmHg 36%
    09:00 +15°C° 0 mm 2 mps 764 mmHg 31%
    10:00 +18°C° 0 mm 3 mps 764 mmHg 27%
    11:00 +19°C° 0 mm 3 mps 763 mmHg 25%
    12:00 +20°C° 0 mm 3 mps 763 mmHg 23%
    13:00 +21°C° 0 mm 2 mps 762 mmHg 21%
    14:00 +21°C° 0 mm 2 mps 762 mmHg 21%
    15:00 +23°C° 0 mm 2 mps 761 mmHg 22%
    16:00 +23°C° 0 mm 1 mps 761 mmHg 22%
    17:00 +21°C° 0 mm 1 mps 760 mmHg 25%
    18:00 +19°C° 0 mm 1 mps 760 mmHg 29%
    19:00 +15°C° 0 mm 0 mps 760 mmHg 32%
    20:00 +14°C° 0 mm 0 mps 760 mmHg 33%
    21:00 +14°C° 0 mm 0 mps 760 mmHg 35%
    22:00 +13°C° 0 mm 0 mps 759 mmHg 36%
    23:00 +13°C° 0 mm 0 mps 759 mmHg 37%

    28 September, Friday

    Time Temperature Precipitation Wind Pressure Humidity
    00:00 +13°C° 0 mm 0 mps 759 mmHg 39%
    01:00 +12°C° 0 mm 0 mps 758 mmHg 40%
    02:00 +12°C° 0 mm 0 mps 758 mmHg 41%
    03:00 +12°C° 0 mm 0 mps 758 mmHg 41%
    04:00 +11°C° 0 mm 0 mps 758 mmHg 42%
    05:00 +12°C° 0 mm 0 mps 757 mmHg 41%
    06:00 +13°C° 0 mm 0 mps 757 mmHg 40%
    07:00 +14°C° 0 mm 0 mps 757 mmHg 39%
    08:00 +18°C° 0 mm 1 mps 757 mmHg 34%
    09:00 +20°C° 0 mm 1 mps 757 mmHg 30%
    10:00 +22°C° 0 mm 1 mps 757 mmHg 26%
    11:00 +23°C° 0 mm 1 mps 757 mmHg 25%
    12:00 +24°C° 0 mm 1 mps 756 mmHg 25%
    13:00 +26°C° 0 mm 1 mps 756 mmHg 24%
    14:00 +25°C° 0 mm 1 mps 755 mmHg 25%
    15:00 +25°C° 0 mm 1 mps 755 mmHg 25%
    16:00 +25°C° 0 mm 1 mps 754 mmHg 26%
    17:00 +23°C° 0 mm 1 mps 754 mmHg 30%
    18:00 +21°C° 0 mm 1 mps 754 mmHg 34%
    19:00 +17°C° 0 mm 0 mps 754 mmHg 38%
    20:00 +17°C° 0 mm 0 mps 753 mmHg 39%
    21:00 +18°C° 0 mm 1 mps 753 mmHg 40%
    22:00 +18°C° 0 mm 1 mps 753 mmHg 42%
    23:00 +16°C° 0 mm 1 mps 753 mmHg 43%

    29 September, Saturday

    Time Temperature Precipitation Wind Pressure Humidity
    00:00 +16°C° 0 mm 1 mps 753 mmHg 44%
    01:00 +16°C° 0 mm 1 mps 753 mmHg 46%
    02:00 +15°C° 0 mm 1 mps 752 mmHg 47%
    03:00 +15°C° 0 mm 2 mps 752 mmHg 49%
    04:00 +14°C° 0 mm 2 mps 752 mmHg 50%
    05:00 +14°C° 0 mm 2 mps 752 mmHg 49%
    06:00 +15°C° 0 mm 2 mps 752 mmHg 49%
    07:00 +15°C° 0 mm 2 mps 753 mmHg 48%
    08:00 +17°C° 0 mm 3 mps 753 mmHg 43%
    09:00 +19°C° 0 mm 3 mps 753 mmHg 39%
    10:00 +22°C° 0 mm 4 mps 753 mmHg 35%
    11:00 +22°C° 0 mm 4 mps 753 mmHg 34%
    12:00 +23°C° 0 mm 5 mps 752 mmHg 33%
    13:00 +25°C° 0 mm 5 mps 752 mmHg 33%
    14:00 +23°C° 0 mm 5 mps 752 mmHg 36%
    15:00 +22°C° 0 mm 6 mps 752 mmHg 39%
    16:00 +21°C° 0 mm 6 mps 753 mmHg 42%
    17:00 +20°C° 0 mm 6 mps 753 mmHg 47%
    18:00 +17°C° 0 mm 6 mps 754 mmHg 52%
    19:00 +15°C° 0 mm 5 mps 754 mmHg 56%
    20:00 +14°C° 0 mm 5 mps 754 mmHg 56%
    21:00 +14°C° 0 mm 5 mps 755 mmHg 56%
    22:00 +13°C° 0 mm 4 mps 755 mmHg 55%
    23:00 +12°C° 0 mm 4 mps 755 mmHg 57%
    Show more